Other Public Products
Issued by NWS Grand Forks, ND

Home | Current Version | Previous Version | Text Only | Print | Product List | Glossary On
Versions: 1 2 3 4 5 6 7 8 9 10 11 12 13 14 15 16 17 18 19 20 21 22 23 24 25 26 27 28 29 30 31 32 33 34 35 36 37 38 39 40 41 42 43 44 45 46 47 48 49 50
000
FPUS83 KFGF 220231
OPUFGF
PRAIRIE TO PINES WEATHER ROUNDUP
NATIONAL WEATHER SERVICE EASTERN NORTH DAKOTA/GRAND FORKS ND
800 PM CST SAT JAN 21 2017

 **SATELLITE DATA USED TO AUGMENT SKY COVER AT AUTOMATED STATIONS**
 *****  WEATHER ACROSS EASTERN NORTH DAKOTA  *****

CITY           SKY/WX    TMP DP  RH WIND       PRES   REMARKS
GRAND FORKS    CLOUDY    35  33  92 CALM      29.53R
GRAND FORKS AF FOG       32  32 100 CALM      29.54R VSB 1/2
GRAND CITY NWS NOT AVBL
BUXTON           N/A     35  35  99 CALM        N/A
DEVILS LAKE    CLOUDY    33  32  96 S3        29.52R FOG
FARGO          CLOUDY    37  34  89 CALM      29.52R
WAHPETON ARPT  CLOUDY    34  32  93 CALM      29.52R VSB 1/2
$$

 *****  WEATHER ACROSS CENTRAL AND WESTERN NORTH DAKOTA  *****

CITY           SKY/WX    TMP DP  RH WIND       PRES   REMARKS
JAMESTOWN      CLOUDY    33  32  96 N3        29.50R
BISMARCK       CLOUDY    29  25  85 CALM      29.53R
MINOT          CLOUDY    27  23  85 S6        29.50R WCI  20
MINOT AFB      CLOUDY    27  25  93 W6        29.50R WCI  20
GARRISON         N/A     23  21  92 W7        29.50R WCI  15
WILLISTON      CLOUDY    31  28  89 NW12      29.53R WCI  22
DICKINSON      FAIR      22  17  81 W14       29.49R WCI   9
HETTINGER      FAIR      22  18  85 NW12      29.55R WCI  10
$$

 *****  OTHER OBSERVATIONS NORTHEAST NORTH DAKOTA  *****

CITY           SKY/WX    TMP DP  RH WIND       PRES   REMARKS
WALHALLA       NOT AVBL
LANGDON        NOT AVBL
CAVALIER       FOG       32  32 100 CALM      29.54R VSB 1/2
GRAFTON        FOG       32  32 100 CALM      29.56R VSB 3/4
CANDO          NOT AVBL
FORT TOTTEN      N/A     32  32 100 CALM      29.95S
ROLLA            N/A    N/A N/A N/A MISG        N/A
RUGBY            N/A     32  32 100 W5        29.51R FOG
 ***** THE ABOVE OBSERVATIONS ARE NON NWS ARE NOT QUALITY
        CONTROLLED AND MAY MIS-REPORT RAIN FOR SNOW...
$$

 *****  OTHER OBSERVATIONS SOUTHEAST NORTH DAKOTA *****

CITY           SKY/WX    TMP DP  RH WIND       PRES   REMARKS
COOPERSTOWN    CLOUDY    34  32  93 SE3       29.51S FOG
VALLEY CITY    FOG       32  32 100 E5        29.52S VSB 1/2
OAKES          NOT AVBL
GWINNER        CLOUDY    34  34 100 CALM      29.51R VSB 1/4
SHEYENNE NWR     N/A     33  33 100 CALM      29.95S
BUFFALO          N/A     33  32  96 CALM        N/A
WYNDMERE         N/A     34  34 100 CALM        N/A
 ***** THE ABOVE OBSERVATIONS ARE NON NWS ARE NOT QUALITY
       CONTROLLED AND MAY MIS-REPORT RAIN FOR SNOW...
$$

  *****  WEATHER ACROSS NORTHERN MINNESOTA  *****

CITY           SKY/WX    TMP DP  RH WIND       PRES   REMARKS
FLAG ISLAND    CLOUDY    34  34 100 E3        29.56R
WARROAD        CLOUDY    34  30  86 CALM      29.56R
ROSEAU         HAZE      36  30  80 CALM      29.56R VSB 3/4
HALLOCK        LGT RAIN  34  34 100 CALM      29.54R
THF RVR FALLS  CLOUDY    34  33  96 E6        29.54R
HALSTAD          N/A     33  32  96 NE2         N/A
FOSSTON        CLOUDY    32  30  93 CALM      29.54R FOG
BAUDETTE       CLOUDY    34  33  96 E3        29.54R
WASKISH        CLOUDY    36  34  93 CALM      29.55R
CROOKSTON      MIX PCPN  36  34  93 E3        29.55R
$$
  *****  WEATHER ACROSS CENTRAL AND WEST MINNESOTA  *****

CITY           SKY/WX    TMP DP  RH WIND       PRES   REMARKS
BEMIDJI        CLOUDY    33  33  99 CALM      29.53R FOG
PARK RAPIDS    FOG       35  32  88 NE5       29.51R VSB 1/2
WADENA         DRZL/FOG  34  34 100 CALM      29.51R VSB<1/4
DETROIT LAKES  DRIZZLE   36  34  93 CALM      29.52S
MOORHEAD       CLOUDY    34  32  93 CALM      29.53S
FERGUS FALLS   CLOUDY    34  34 100 CALM      29.55R FOG
ELBOW LAKE     LGT SNOW  33  33 100 NE3       29.52R VSB 3/4
MORRIS MN      FOG       34  34 100 CALM      29.50R VSB 1
STAPLES        FOG       34  34 100 CALM      29.51R VSB 1/2
WHEATON        FOG       39  39 100 CALM      29.54R VSB 1/4
$$
  *****  WEATHER ELSEWHERE ACROSS MINNESOTA  *****

CITY           SKY/WX    TMP DP  RH WIND       PRES   REMARKS
DULUTH         DRZL/FOG  35  35 100 NE6       29.50S VSB 1/2
INTRNTL FALLS  FOG       35  33  92 NE3       29.54R VSB 3/4
ELY            CLOUDY    34  34 100 CALM      29.53R
CLOQUET        CLOUDY    34  34 100 CALM      29.51R FOG
BRAINERD       FOG       34  34 100 N6        29.51R VSB 3/4
HIBBING        CLOUDY    34  34 100 CALM      29.52S FOG
ALEXANDRIA     FOG       34  34 100 NE5       29.50R VSB 1/4
SAINT CLOUD    FOG       34  34 100 CALM      29.49R VSB 1/4
MINNEAPOLIS    FOG       37  34  89 S3        29.51R VSB 1
$$

  *****  WEATHER ACROSS SOUTH DAKOTA  *****

CITY           SKY/WX    TMP DP  RH WIND       PRES   REMARKS
SIOUX FALLS    CLOUDY    32  29  88 NW9       29.51R WCI  24
BROOKINGS      CLOUDY    31  29  92 W8        29.50R WCI  23
WATERTOWN      CLOUDY    30  29  96 NW8       29.49R WCI  22
HURON          CLOUDY    31  29  92 NW7       29.53R WCI  24
SISSETON         N/A     33  33 100 CALM      29.50R
ABERDEEN       CLOUDY    32  28  85 W3        29.52R
MITCHELL       CLOUDY    33  30  88 NW7       29.54R
PIERRE         FAIR      22  20  92 CALM      29.53R
MOBRIDGE       FAIR      22  19  89 CALM      29.51R
RAPID CITY     FAIR      28  24  85 N8        29.56R WCI  20
$$

  *****  SOME WEATHER IN NEARBY STATES *****

CITY           SKY/WX    TMP DP  RH WIND       PRES   REMARKS
GLASGOW MT     FAIR      25  22  88 W5        29.53R WCI  19
GREAT FALLS MT FAIR      24  19  81 W6        29.60R WCI  17
CHEYENNE WY    FAIR      31  22  69 CALM      29.54R
SCOTTSBLUFF NE MOCLDY    31  27  85 N6        29.54R
OMAHA NE       FAIR      37  31  78 CALM      29.53R
DES MOINES IA  FAIR      37  35  92 CALM      29.54S FOG
DAVENPORT IA   CLOUDY    42  40  92 SW8       29.57S
CHICAGO IL     FAIR      46  41  82 W6        29.56R
EAU CLAIRE WI  FOG       35  32  88 CALM      29.48S VSB 1/4
LA CROSSE WI   FOG       41  38  89 S6        29.51R VSB 1/2
$$

  *****  SOME NATIONAL WEATHER *****

CITY           SKY/WX    TMP DP  RH WIND       PRES   REMARKS
LA GUARDIA NY  CLOUDY    48  45  89 CALM      29.80F FOG
RALEIGH NC     FOG       54  53  97 E6        29.69F VSB 1/4
ATLANTA GA     MOCLDY    59  57  93 CALM      29.68F
NEW ORLEANS LA CLOUDY    73  71  93 S12       29.50S
OKLAHOMA CITY  MOCLDY    56  40  55 SE12      29.35F
ALBUQUERQUE NM MOCLDY    38  22  52 W13       29.68R
SALT LAKE CITY MOCLDY    32  28  85 S3        29.82R
LOS ANGELES CA MOCLDY    56  47  71 SW7       30.01R
BOISE ID       MIX PCPN  37  31  78 SE6       29.76R
SEATTLE WA     CLOUDY    45  43  93 S5        29.51R
$$

*** WEATHER ACROSS MANITOBA...SASKATCHEWAN AND ONTARIO ***
                ***ONTARIO***

CITY           SKY/WX    TMP DP  RH WIND       PRES   REMARKS
GERALDTON      FOG       32  32 100 NE10G18   29.63F VSB 3/4 WCI  24
THUNDER BAY    LGT RAIN  36  36 100 NE13      29.58R FOG
SIOUX LOOKOUT  DRZL/FOG  34  34 100 E3        29.58R VSB 3/8
TORONTO        CLOUDY    41  39  93 E5        29.71S FOG
BIG TROUT LK   FLURRIES  27  25  93 E7        29.75S WCI  19
PICKLE LAKE    FLURRIES  30  28  93 E7        29.64R WCI  23
DRYDEN         FOG       34  34 100 NE5       29.56R VSB 1/4
KENORA         FOG       34  34 100 E6        29.55  VSB 1/4
$$
                *** MANITOBA***

CITY           SKY/WX    TMP DP  RH WIND       PRES   REMARKS
BRANDON        CLOUDY    32  32 100 E5        29.51R FOG
DAUPHIN        LGT RAIN  34  32  93 SE7       29.51S
ISLAND LAKE    LGT SNOW  32  32 100 E3        29.64S
PILOT MOUND      N/A     32  32 100 SE6         N/A
THE PAS        FOG       34  32  93 E6        29.56R VSB 1/2
THOMPSON       FRZ RAIN  30  28  93 E6        29.65S WCI  24
WINNIPEG       CLOUDY    34  34 100 E5        29.54S
LYNN LAKE      LGT SNOW  28  28 100 E7        29.64R WCI  21
CHURCHILL      CLOUDY    16  14  93 SE15      29.87S WCI   1
GILLAM         FOG       27  25  93 E5        29.74S VSB 1   WCI  21
$$
                ***SASKATCHEWAN***

CITY           SKY/WX    TMP DP  RH WIND       PRES   REMARKS
ESTEVAN        FOG       27  27 100 W8        29.50R VSB 1/4 WCI  18
KINDERSLEY     CLOUDY    28  27  93 NW8       29.57R FOG     WCI  20
LLOYDMINSTER   CLOUDY    28  27  93 N12       29.63R FOG     WCI  18
PRINCE ALBERT  MOCLDY    25  21  86 N10       29.55R WCI  15
REGINA         FLURRIES  27  25  93 W9        29.51R WCI  17
YORKTON        LGT SNOW  30  28  93 NW5       29.48R   C1F1C2F2C3F3C4F4C5F5C6F6C7F7C8F8C9F9CaFaCbFbCcFcCdFdCe!


USA.gov is the U.S. government's official web portal to all federal, state and local government web resources and services.